Tillbaka till svenska Fidonet
English   Information   Debug  
FILM   0/18
FNEWS_PUBLISH   5034
FN_SYSOP   42247
FN_SYSOP_OLD1   71952
FTP_FIDO   0/2
FTSC_PUBLIC   0/13979
FUNNY   0/4886
GENEALOGY.EUR   0/71
GET_INFO   105
GOLDED   0/408
HAM   186/16786
HOLYSMOKE   0/6791
HOT_SITES   0/1
HTMLEDIT   0/71
HUB203   466
HUB_100   264
HUB_400   39
HUMOR   0/29
IC   418/2851
INTERNET   0/424
INTERUSER   0/3
IP_CONNECT   719
JAMNNTPD   0/233
JAMTLAND   0/47
KATTY_KORNER   0/41
LAN   0/16
LINUX-USER   0/19
LINUXHELP   0/1155
LINUX   0/22427
LINUX_BBS   0/957
mail   18.68
mail_fore_ok   249
MENSA   0/341
MODERATOR   0/102
MONTE   0/992
MOSCOW_OKLAHOMA   0/1245
MUFFIN   0/783
MUSIC   0/321
N203_STAT   938
N203_SYSCHAT   313
NET203   321
NET204   69
NET_DEV   0/10
NORD.ADMIN   0/101
NORD.CHAT   0/2572
NORD.FIDONET   189
NORD.HARDWARE   0/28
NORD.KULTUR   0/114
NORD.PROG   0/32
NORD.SOFTWARE   0/88
NORD.TEKNIK   0/58
NORD   0/453
OCCULT_CHAT   0/93
OS2BBS   0/787
OS2DOSBBS   0/580
OS2HW   0/42
OS2INET   0/37
OS2LAN   0/134
OS2PROG   0/36
OS2REXX   0/113
OS2USER-L   207
OS2   0/4835
OSDEBATE   0/18996
PASCAL   0/490
PERL   0/457
PHP   0/45
POINTS   0/405
POLITICS   0/29554
POL_INC   523/14731
PSION   103
R20_ADMIN   1133
R20_AMATORRADIO   0/2
R20_BEST_OF_FIDONET   16
R20_CHAT   0/897
R20_DEPP   0/3
R20_DEV   400
R20_ECHO2   1934
R20_ECHOPRES   0/35
R20_ESTAT   0/719
R20_FIDONETPROG...
...RAM.MYPOINT
  0/2
R20_FIDONETPROGRAM   0/22
R20_FIDONET   0/248
R20_FILEFIND   0/24
R20_FILEFOUND   0/22
R20_HIFI   0/3
R20_INFO2   3828
R20_INTERNET   0/12940
R20_INTRESSE   0/60
R20_INTR_KOM   0/99
R20_KANDIDAT.CHAT   42
R20_KANDIDAT   28
R20_KOM_DEV   112
R20_KONTROLL   0/13360
R20_KORSET   0/18
R20_LOKALTRAFIK   0/24
R20_MODERATOR   0/1852
R20_NC   76
R20_NET200   245
R20_NETWORK.OTH...
...ERNETS
  0/13
R20_OPERATIVSYS...
...TEM.LINUX
  0/44
R20_PROGRAMVAROR   0/1
R20_REC2NEC   534
R20_SFOSM   0/341
R20_SF   0/108
R20_SPRAK.ENGLISH   0/1
R20_SQUISH   107
R20_TEST   2
R20_WORST_OF_FIDONET   20
RAR   0/9
RA_MULTI   106
RA_UTIL   0/162
REGCON.EUR   0/2072
REGCON   0/13
SCIENCE   0/1206
SF   0/239
SHAREWARE_SUPPORT   0/5146
SHAREWRE   0/14
SIMPSONS   0/169
STATS_OLD1   2504/2539.065
STATS_OLD2   0/2530
STATS_OLD3   0/2395.095
STATS_OLD4   0/1692.25
SURVIVOR   0/495
SYSOPS_CORNER   0/3
SYSOP   0/84
TAGLINES   0/112
TEAMOS2   0/4530
TECH   0/2617
TEST.444   0/105
TRAPDOOR   0/19
TREK   0/755
TUB   0/290
UFO   0/40
UNIX   0/1316
USA_EURLINK   0/102
USR_MODEMS   0/1
VATICAN   0/2740
VIETNAM_VETS   0/14
VIRUS   0/378
VIRUS_INFO   0/201
VISUAL_BASIC   0/473
WHITEHOUSE   0/5187
WIN2000   0/101
WIN32   0/30
WIN95   0/4291
WIN95_OLD1   0/70272
WINDOWS   0/1517
WWB_SYSOP   0/419
WWB_TECH   0/810
ZCC-PUBLIC   0/1
ZEC   4

 
4DOS   0/134
ABORTION   0/7
ALASKA_CHAT   0/506
ALLFIX_FILE   0/1313
ALLFIX_FILE_OLD1   0/7997
ALT_DOS   0/152
AMATEUR_RADIO   0/1039
AMIGASALE   0/14
AMIGA   0/331
AMIGA_INT   0/1
AMIGA_PROG   0/20
AMIGA_SYSOP   0/26
ANIME   0/15
ARGUS   0/924
ASCII_ART   0/340
ASIAN_LINK   0/651
ASTRONOMY   0/417
AUDIO   0/92
AUTOMOBILE_RACING   0/105
BABYLON5   0/17862
BAG   135
BATPOWER   0/361
BBBS.ENGLISH   0/382
BBSLAW   0/109
BBS_ADS   0/5290
BBS_INTERNET   0/507
BIBLE   0/3563
BINKD   0/1119
BINKLEY   0/215
BLUEWAVE   0/2173
CABLE_MODEMS   0/25
CBM   0/46
CDRECORD   0/66
CDROM   0/20
CLASSIC_COMPUTER   0/378
COMICS   0/15
CONSPRCY   0/899
COOKING   42383
COOKING_OLD1   0/24719
COOKING_OLD2   0/40862
COOKING_OLD3   0/37489
COOKING_OLD4   15669/35496
COOKING_OLD5   9370
C_ECHO   0/189
C_PLUSPLUS   0/31
DIRTY_DOZEN   0/201
DOORGAMES   0/2388
DOS_INTERNET   0/196
duplikat   6102
ECHOLIST   0/18295
EC_SUPPORT   81/318
ELECTRONICS   0/359
ELEKTRONIK.GER   1534
ENET.LINGUISTIC   0/13
ENET.POLITICS   0/4
ENET.SOFT   0/11701
ENET.SYSOP   34415
ENET.TALKS   0/32
ENGLISH_TUTOR   0/2000
EVOLUTION   0/1335
FDECHO   0/217
FDN_ANNOUNCE   0/7068
FIDONEWS   25232
FIDONEWS_OLD1   0/49742
FIDONEWS_OLD2   0/35949
FIDONEWS_OLD3   0/30874
FIDONEWS_OLD4   0/37224
FIDO_SYSOP   12977
FIDO_UTIL   0/180
FILEFIND   0/209
FILEGATE   0/212
Möte HAM, 16786 texter
 lista första sista föregående nästa
Text 223, 735 rader
Skriven 2005-02-04 01:01:33 av Amsat List (1:323/120.0)
Ärende: 
========
SB KEPS @ AMSAT  $ORB05034.O
Orbital Elements  05034.OSCAR

HR AMSAT ORBITAL ELEMENTS FOR OSCAR SATELLITES
FROM WA5QGD FORT WORTH,TX February 3, 2005
SEND SUBSCRIBE/UNSUBSCRIBE TO majordomo@amsat.org ONLY
BID: ORB05034.O
TO ALL RADIO AMATEURS BT

Satellite: AO-07
Catalog number: 07530
Epoch time:      05033.75798194
Element set:    0386
Inclination:      101.6501 deg
RA of node:       082.5794 deg
Eccentricity:    0.0012284
Arg of perigee:   135.4779 deg
Mean anomaly:     224.7283 deg
Mean motion:   12.53570642 rev/day
Decay rate:       -2.8e-07 rev/day^2
Epoch rev:           38280
Checksum:              308

Satellite: AO-10
Catalog number: 14129
Epoch time:      05032.28649674
Element set:    0149
Inclination:      027.0270 deg
RA of node:       048.8661 deg
Eccentricity:    0.6031849
Arg of perigee:   161.7537 deg
Mean anomaly:     236.0519 deg
Mean motion:   02.05866914 rev/day
Decay rate:        4.2e-07 rev/day^2
Epoch rev:           16273
Checksum:              303

Satellite: UO-11
Catalog number: 14781
Epoch time:      05034.06959342
Element set:     702
Inclination:       98.1961 deg
RA of node:        28.9870 deg
Eccentricity:    0.0010157
Arg of perigee:    73.2761 deg
Mean anomaly:     286.9596 deg
Mean motion:   14.79150059 rev/day
Decay rate:        9.8e-07 rev/day^2
Epoch rev:           12197
Checksum:              324

Satellite: RS-10/11
Catalog number: 18129
Epoch time:      05033.91146119
Element set:     606
Inclination:       82.9295 deg
RA of node:       337.4594 deg
Eccentricity:    0.0013174
Arg of perigee:    44.9778 deg
Mean anomaly:     315.2431 deg
Mean motion:   13.72753106 rev/day
Decay rate:        2.4e-07 rev/day^2
Epoch rev:           88265
Checksum:              304

Satellite: FO-20
Catalog number: 20480
Epoch time:      05034.45224634
Element set:     813
Inclination:       99.0206 deg
RA of node:       234.1090 deg
Eccentricity:    0.0540048
Arg of perigee:   182.7120 deg
Mean anomaly:     177.1012 deg
Mean motion:   12.83344493 rev/day
Decay rate:       -4.8e-07 rev/day^2
Epoch rev:           70234
Checksum:              257

Satellite: RS-12/13
Catalog number: 21089
Epoch time:      05034.00379548
Element set:     829
Inclination:       82.9216 deg
RA of node:        10.4668 deg
Eccentricity:    0.0030947
Arg of perigee:    92.6160 deg
Mean anomaly:     267.8540 deg
Mean motion:   13.74446157 rev/day
Decay rate:        1.3e-07 rev/day^2
Epoch rev:           70206
Checksum:              298

Satellite: RS-15
Catalog number: 23439
Epoch time:      05034.30269457
Element set:     838
Inclination:       64.8236 deg
RA of node:       324.0778 deg
Eccentricity:    0.0160562
Arg of perigee:   339.7247 deg
Mean anomaly:      19.7350 deg
Mean motion:   11.27551149 rev/day
Decay rate:       -3.9e-07 rev/day^2
Epoch rev:           41629
Checksum:              316

Satellite: FO-29
Catalog number: 24278
Epoch time:      05033.76074611
Element set:    0890
Inclination:      098.5666 deg
RA of node:       101.3691 deg
Eccentricity:    0.0351077
Arg of perigee:   164.5145 deg
Mean anomaly:     196.7070 deg
Mean motion:   13.52908894 rev/day
Decay rate:        1.3e-07 rev/day^2
Epoch rev:           41801
Checksum:              312

Satellite: SO-33
Catalog number: 25509
Epoch time:      05033.53905863
Element set:     292
Inclination:       31.4303 deg
RA of node:        73.6458 deg
Eccentricity:    0.0355076
Arg of perigee:    69.1914 deg
Mean anomaly:     294.6400 deg
Mean motion:   14.27962492 rev/day
Decay rate:       2.78e-06 rev/day^2
Epoch rev:           32756
Checksum:              314

Satellite: AO-40
Catalog number: 26609
Epoch time:      05031.17521870
Element set:     493
Inclination:        8.7162 deg
RA of node:       322.5729 deg
Eccentricity:    0.7964556
Arg of perigee:     3.1800 deg
Mean anomaly:     359.6610 deg
Mean motion:    1.25586039 rev/day
Decay rate:      -2.38e-06 rev/day^2
Epoch rev:            1954
Checksum:              303

/EX
SB KEPS @ AMSAT  $ORB05034.D
Orbital Elements  05034.MICROS

HR AMSAT ORBITAL ELEMENTS FOR THE MICROSATS
FROM WA5QGD FORT WORTH,TX February 3, 2005
SEND SUBSCRIBE/UNSUBSCRIBE TO majordomo@amsat.org ONLY
BID: ORB05034.D
TO ALL RADIO AMATEURS BT

Satellite: UO-14
Catalog number: 20437
Epoch time:      05034.05193428
Element set:     701
Inclination:       98.1984 deg
RA of node:        51.2495 deg
Eccentricity:    0.0009839
Arg of perigee:   231.7257 deg
Mean anomaly:     128.3043 deg
Mean motion:   14.31396128 rev/day
Decay rate:       -1.5e-07 rev/day^2
Epoch rev:           78484
Checksum:              302

Satellite: AO-16
Catalog number: 20439
Epoch time:      05033.66175719
Element set:     387
Inclination:       98.2213 deg
RA of node:        65.9907 deg
Eccentricity:    0.0010121
Arg of perigee:   240.7779 deg
Mean anomaly:     119.2398 deg
Mean motion:   14.31657350 rev/day
Decay rate:        5.0e-08 rev/day^2
Epoch rev:           78484
Checksum:              314

Satellite: WO-18
Catalog number: 20441
Epoch time:      05034.79155804
Element set:     581
Inclination:       98.2341 deg
RA of node:        71.3040 deg
Eccentricity:    0.0010702
Arg of perigee:   238.2684 deg
Mean anomaly:     121.7439 deg
Mean motion:   14.31732513 rev/day
Decay rate:        4.4e-07 rev/day^2
Epoch rev:           78506
Checksum:              272

Satellite: LO-19
Catalog number: 20442
Epoch time:      05034.61593474
Element set:     317
Inclination:       98.2430 deg
RA of node:        75.4375 deg
Eccentricity:    0.0011024
Arg of perigee:   238.8958 deg
Mean anomaly:     121.1145 deg
Mean motion:   14.31904137 rev/day
Decay rate:        2.1e-07 rev/day^2
Epoch rev:           78510
Checksum:              275

